Stations météo

réclame
Mon MeteoGroup
Falsterbo, Suède (2616): Température de l'air & dewpoint: 12.08.2018 02:00:00 - 18.08.2018 02:00:00 (CEST)Falsterbo, Suède (2616): Vitesse du vent: 12.08.2018 02:00:00 - 18.08.2018 02:00:00 (CEST)Falsterbo, Suède (2616): Direction du vent: 12.08.2018 02:00:00 - 18.08.2018 02:00:00 (CEST)Falsterbo, Suède (2616): reduced air pressure: 12.08.2018 02:00:00 - 18.08.2018 02:00:00 (CEST)Falsterbo, Suède (2616): visibility: 12.08.2018 02:00:00 - 18.08.2018 02:00:00 (CEST)
Date & Time tt [°C] td [°C] ff [km/h] ff [knt] dd ppp [hPa] vv [km]
18.08.2018 02:00:00 18,2 13,9 22 12 WNW 1018,6 35
18.08.2018 01:00:00 - - - - - - -
18.08.2018 00:00:00 - - - - - - -
17.08.2018 23:00:00 18,3 15,2 14 8 W 1018,0 35
17.08.2018 22:00:00 - - - - - - -
17.08.2018 21:00:00 - - - - - - -
17.08.2018 20:00:00 18,4 15,8 14 8 WNW 1016,9 35
17.08.2018 19:00:00 - - - - - - -
17.08.2018 18:00:00 - - - - - - -
17.08.2018 17:00:00 19,5 15,4 22 12 NW 1016,6 24
17.08.2018 16:00:00 - - - - - - -
17.08.2018 15:00:00 - - - - - - -
17.08.2018 14:00:00 23,0 15,8 11 6 W 1015,9 40
17.08.2018 13:00:00 - - - - - - -
17.08.2018 12:00:00 - - - - - - -
17.08.2018 11:00:00 21,4 16,6 14 8 WNW 1015,9 35
17.08.2018 10:00:00 - - - - - - -
17.08.2018 09:00:00 - - - - - - -
17.08.2018 08:00:00 19,5 16,7 14 8 NW 1014,9 22
17.08.2018 07:00:00 - - - - - - -
17.08.2018 06:00:00 - - - - - - -
17.08.2018 05:00:00 19,5 18,3 14 8 NW 1014,0 13
17.08.2018 04:00:00 - - - - - - -
17.08.2018 03:00:00 - - - - - - -
17.08.2018 02:00:00 19,7 18,2 11 6 S 1014,0 18
17.08.2018 01:00:00 - - - - - - -
17.08.2018 00:00:00 - - - - - - -
16.08.2018 23:00:00 20,7 19,0 18 10 SSE 1014,1 20
16.08.2018 22:00:00 - - - - - - -
16.08.2018 21:00:00 - - - - - - -
16.08.2018 20:00:00 21,2 18,4 22 12 SE 1014,4 20
16.08.2018 19:00:00 - - - - - - -
16.08.2018 18:00:00 - - - - - - -
16.08.2018 17:00:00 23,8 18,4 14 8 SE 1015,4 20
16.08.2018 16:00:00 - - - - - - -
16.08.2018 15:00:00 - - - - - - -
16.08.2018 14:00:00 25,7 17,6 25 14 S 1016,3 15
16.08.2018 13:00:00 - - - - - - -
16.08.2018 12:00:00 - - - - - - -
16.08.2018 11:00:00 23,5 17,9 25 14 S 1016,8 9
16.08.2018 10:00:00 - - - - - - -
16.08.2018 09:00:00 - - - - - - -
16.08.2018 08:00:00 20,1 18,0 22 12 SSW 1016,9 8
16.08.2018 07:00:00 - - - - - - -
16.08.2018 06:00:00 - - - - - - -
16.08.2018 05:00:00 19,5 17,1 14 8 SW 1017,5 30
16.08.2018 04:00:00 - - - - - - -
16.08.2018 03:00:00 - - - - - - -
16.08.2018 02:00:00 19,4 16,8 18 10 WSW 1017,5 35
16.08.2018 01:00:00 - - - - - - -
16.08.2018 00:00:00 - - - - - - -
15.08.2018 23:00:00 19,8 16,8 18 10 WSW 1017,2 40
15.08.2018 22:00:00 - - - - - - -
15.08.2018 21:00:00 - - - - - - -
15.08.2018 20:00:00 20,7 17,5 14 8 WSW 1016,6 40
15.08.2018 19:00:00 - - - - - - -
15.08.2018 18:00:00 - - - - - - -
15.08.2018 17:00:00 21,1 16,1 22 12 WSW 1016,3 45
15.08.2018 16:00:00 - - - - - - -
15.08.2018 15:00:00 - - - - - - -
15.08.2018 14:00:00 21,4 15,0 14 8 SW 1016,1 45
15.08.2018 13:00:00 - - - - - - -
15.08.2018 12:00:00 - - - - - - -
15.08.2018 11:00:00 19,9 14,3 22 12 W 1015,5 40
15.08.2018 10:00:00 - - - - - - -
15.08.2018 09:00:00 - - - - - - -
15.08.2018 08:00:00 17,6 14,3 36 19 WNW 1013,6 40
15.08.2018 07:00:00 - - - - - - -
15.08.2018 06:00:00 - - - - - - -
15.08.2018 05:00:00 18,2 15,3 36 19 NW 1011,8 45
15.08.2018 04:00:00 - - - - - - -
15.08.2018 03:00:00 - - - - - - -
15.08.2018 02:00:00 18,7 16,8 25 14 W 1010,9 30
15.08.2018 01:00:00 - - - - - - -
15.08.2018 00:00:00 - - - - - - -
14.08.2018 23:00:00 19,0 16,0 32 18 WNW 1009,8 35
14.08.2018 22:00:00 - - - - - - -
14.08.2018 21:00:00 - - - - - - -
14.08.2018 20:00:00 19,6 15,9 32 18 NW 1008,2 40
14.08.2018 19:00:00 - - - - - - -
14.08.2018 18:00:00 - - - - - - -
14.08.2018 17:00:00 19,7 17,8 4 2 NW 1006,8 23
14.08.2018 16:00:00 - - - - - - -
14.08.2018 15:00:00 - - - - - - -
14.08.2018 14:00:00 20,2 17,4 22 12 WSW 1006,3 14
14.08.2018 13:00:00 - - - - - - -
14.08.2018 12:00:00 - - - - - - -
14.08.2018 11:00:00 20,5 17,3 22 12 SW 1005,5 6
14.08.2018 10:00:00 - - - - - - -
14.08.2018 09:00:00 - - - - - - -
14.08.2018 08:00:00 18,7 17,0 25 14 WSW 1004,9 10
14.08.2018 07:00:00 - - - - - - -
14.08.2018 06:00:00 - - - - - - -
14.08.2018 05:00:00 18,6 17,3 14 8 ESE 1004,5 30
14.08.2018 04:00:00 - - - - - - -
14.08.2018 03:00:00 - - - - - - -
14.08.2018 02:00:00 18,1 16,6 32 18 E 1005,5 30
14.08.2018 01:00:00 - - - - - - -
14.08.2018 00:00:00 - - - - - - -
13.08.2018 23:00:00 18,1 16,8 25 14 E 1006,6 25
13.08.2018 22:00:00 - - - - - - -
13.08.2018 21:00:00 - - - - - - -
13.08.2018 20:00:00 18,6 16,6 29 16 E 1007,1 20
13.08.2018 19:00:00 - - - - - - -
13.08.2018 18:00:00 - - - - - - -
13.08.2018 17:00:00 19,5 17,6 18 10 E 1008,2 45
13.08.2018 16:00:00 - - - - - - -
13.08.2018 15:00:00 - - - - - - -
13.08.2018 14:00:00 20,7 17,3 18 10 SE 1008,9 60
13.08.2018 13:00:00 - - - - - - -
13.08.2018 12:00:00 - - - - - - -
13.08.2018 11:00:00 19,7 17,8 22 12 SSE 1009,3 27
13.08.2018 10:00:00 - - - - - - -
13.08.2018 09:00:00 - - - - - - -
13.08.2018 08:00:00 17,3 16,5 18 10 S 1009,2 18
13.08.2018 07:00:00 - - - - - - -
13.08.2018 06:00:00 - - - - - - -
13.08.2018 05:00:00 17,1 16,1 25 14 SW 1009,6 10
13.08.2018 04:00:00 - - - - - - -
13.08.2018 03:00:00 - - - - - - -
13.08.2018 02:00:00 16,2 15,7 25 14 SSW 1010,4 3,5
13.08.2018 01:00:00 - - - - - - -
13.08.2018 00:00:00 - - - - - - -
12.08.2018 23:00:00 13,8 12,7 14 8 ESE 1012,1 8
12.08.2018 22:00:00 - - - - - - -
12.08.2018 21:00:00 - - - - - - -
12.08.2018 20:00:00 14,6 12,3 18 10 SW 1013,0 12
12.08.2018 19:00:00 - - - - - - -
12.08.2018 18:00:00 - - - - - - -
12.08.2018 17:00:00 16,6 12,4 25 14 WNW 1014,2 21
12.08.2018 16:00:00 - - - - - - -
12.08.2018 15:00:00 - - - - - - -
12.08.2018 14:00:00 17,4 12,3 25 14 WNW 1014,7 45
12.08.2018 13:00:00 - - - - - - -
12.08.2018 12:00:00 - - - - - - -
12.08.2018 11:00:00 18,7 11,0 29 16 W 1015,1 45
12.08.2018 10:00:00 - - - - - - -
12.08.2018 09:00:00 - - - - - - -
12.08.2018 08:00:00 16,3 11,7 40 21 W 1015,3 45
12.08.2018 07:00:00 - - - - - - -
12.08.2018 06:00:00 - - - - - - -
12.08.2018 05:00:00 15,3 11,1 40 21 W 1014,9 45
12.08.2018 04:00:00 - - - - - - -
12.08.2018 03:00:00 - - - - - - -
12.08.2018 02:00:00 15,9 11,3 43 23 W 1014,7 60

tt = Température de l'air
td = dewpoint
ff = Vitesse du vent
dd = Direction du vent
ppp = reduced air pressure
vv = visibility

stations d'obs. à proximité